Back to catalog

ICEYE-X41

AliveScienceSSO
NORAD 62700·PAYLOAD·🇺🇸 United States

Launched Jan 14, 2025 from Vandenberg Space Force Base

Loading…

Next Passes (next 24 hours)

TLE

FreshSource: Space-Track

Epoch: Sep 14, 2026, 04:05 UTC

1 62700U 25009CV  26257.17061332  .00003043  00000-0  26801-3 0  9996
2 62700  97.7015 335.4028 0003407  92.4434 267.7178 14.97211657 90720

Track ICEYE-X41 in real time with AllMySat

Download on the App Store